Time,TemperatureF,DewpointF,PressureIn,WindDirection,WindDirectionDegrees,WindSpeedMPH,WindSpeedGustMPH,Humidity,HourlyPrecipIn,Conditions,Clouds,dailyrainin,SoftwareType,DateUTC
2013-03-15 00:02:00,58.0,28.0,26.57,WNW,290,3.0,8.0,32,0.00,,,0.00,,2013-03-15 06:02:00,
2013-03-15 00:12:00,58.0,28.0,26.57,WNW,290,3.0,8.0,32,0.00,,,0.00,,2013-03-15 06:12:00,
2013-03-15 00:22:00,58.0,29.0,26.56,WSW,256,4.0,8.0,33,0.00,,,0.00,,2013-03-15 06:22:00,
2013-03-15 00:32:00,58.0,28.0,26.56,West,271,1.0,10.0,32,0.00,,,0.00,,2013-03-15 06:32:00,
2013-03-15 00:42:00,58.0,28.0,26.56,West,271,1.0,10.0,32,0.00,,,0.00,,2013-03-15 06:42:00,
2013-03-15 00:53:00,57.0,28.0,26.56,WNW,294,2.0,4.0,33,0.00,,,0.00,,2013-03-15 06:53:00,
2013-03-15 01:02:00,55.0,29.0,26.56,WNW,294,0.0,2.0,36,0.00,,,0.00,,2013-03-15 07:02:00,
2013-03-15 01:12:00,55.0,29.0,26.56,WNW,294,0.0,2.0,36,0.00,,,0.00,,2013-03-15 07:12:00,
2013-03-15 01:22:00,55.0,29.0,26.56,WNW,294,0.0,2.0,36,0.00,,,0.00,,2013-03-15 07:22:00,
2013-03-15 01:32:00,54.0,28.0,26.55,WNW,284,1.0,5.0,37,0.00,,,0.00,,2013-03-15 07:32:00,
2013-03-15 01:42:00,54.0,28.0,26.55,WNW,284,1.0,5.0,37,0.00,,,0.00,,2013-03-15 07:42:00,
2013-03-15 01:52:00,55.0,29.0,26.55,WNW,291,2.0,4.0,36,0.00,,,0.00,,2013-03-15 07:52:00,
2013-03-15 02:02:00,54.0,28.0,26.55,West,281,5.0,6.0,36,0.00,,,0.00,,2013-03-15 08:02:00,
2013-03-15 02:12:00,54.0,28.0,26.55,West,281,5.0,6.0,36,0.00,,,0.00,,2013-03-15 08:12:00,
2013-03-15 02:22:00,53.0,27.0,26.54,West,275,5.0,8.0,37,0.00,,,0.00,,2013-03-15 08:22:00,
2013-03-15 02:32:00,54.0,28.0,26.54,West,273,5.0,9.0,37,0.00,,,0.00,,2013-03-15 08:32:00,
2013-03-15 02:42:00,54.0,28.0,26.54,West,273,5.0,9.0,37,0.00,,,0.00,,2013-03-15 08:42:00,
2013-03-15 02:52:00,54.0,28.0,26.53,West,279,5.0,8.0,37,0.00,,,0.00,,2013-03-15 08:52:00,
2013-03-15 03:02:00,54.0,28.0,26.52,NNW,348,1.0,6.0,37,0.00,,,0.00,,2013-03-15 09:02:00,
2013-03-15 03:12:00,54.0,28.0,26.52,NNW,348,1.0,6.0,37,0.00,,,0.00,,2013-03-15 09:12:00,
2013-03-15 03:22:00,53.0,29.0,26.52,NNE,14,0.0,2.0,39,0.00,,,0.00,,2013-03-15 09:22:00,
2013-03-15 03:33:00,51.0,28.0,26.51,NNE,13,0.0,0.0,40,0.00,,,0.00,,2013-03-15 09:33:00,
2013-03-15 03:43:00,51.0,28.0,26.51,NNE,13,0.0,0.0,40,0.00,,,0.00,,2013-03-15 09:43:00,
2013-03-15 03:53:00,52.0,28.0,26.51,North,360,0.0,2.0,39,0.00,,,0.00,,2013-03-15 09:53:00,
2013-03-15 04:03:00,51.0,28.0,26.51,North,360,0.0,0.0,41,0.00,,,0.00,,2013-03-15 10:03:00,
2013-03-15 04:12:00,51.0,28.0,26.51,North,360,0.0,0.0,41,0.00,,,0.00,,2013-03-15 10:12:00,
2013-03-15 04:23:00,50.0,28.0,26.50,North,360,0.0,1.0,42,0.00,,,0.00,,2013-03-15 10:23:00,
2013-03-15 04:33:00,50.0,28.0,26.49,North,360,0.0,4.0,42,0.00,,,0.00,,2013-03-15 10:33:00,
2013-03-15 04:42:00,50.0,28.0,26.49,North,360,0.0,4.0,42,0.00,,,0.00,,2013-03-15 10:42:00,
2013-03-15 04:52:00,50.0,28.0,26.49,North,360,0.0,4.0,42,0.00,,,0.00,,2013-03-15 10:52:00,
2013-03-15 05:02:00,49.0,28.0,26.49,North,360,0.0,1.0,44,0.00,,,0.00,,2013-03-15 11:02:00,
2013-03-15 05:12:00,49.0,28.0,26.49,North,360,0.0,1.0,44,0.00,,,0.00,,2013-03-15 11:12:00,
2013-03-15 05:22:00,49.0,27.0,26.49,North,355,1.0,4.0,43,0.00,,,0.00,,2013-03-15 11:22:00,
2013-03-15 05:32:00,49.0,28.0,26.48,East,92,4.0,6.0,44,0.00,,,0.00,,2013-03-15 11:32:00,
2013-03-15 05:42:00,49.0,28.0,26.48,East,92,4.0,6.0,44,0.00,,,0.00,,2013-03-15 11:42:00,
2013-03-15 05:52:00,48.0,28.0,26.47,ESE,117,4.0,7.0,45,0.00,,,0.00,,2013-03-15 11:52:00,
2013-03-15 06:02:00,48.0,27.0,26.47,SE,129,0.0,5.0,44,0.00,,,0.00,,2013-03-15 12:02:00,
2013-03-15 06:12:00,48.0,27.0,26.47,SE,129,0.0,5.0,44,0.00,,,0.00,,2013-03-15 12:12:00,
2013-03-15 06:23:00,48.0,28.0,26.47,NE,41,2.0,5.0,45,0.00,,,0.00,,2013-03-15 12:23:00,
2013-03-15 06:32:00,47.0,28.0,26.46,NE,41,0.0,0.0,47,0.00,,,0.00,,2013-03-15 12:32:00,
2013-03-15 06:42:00,47.0,28.0,26.46,NE,41,0.0,0.0,47,0.00,,,0.00,,2013-03-15 12:42:00,
2013-03-15 06:52:00,45.0,27.0,26.46,NE,41,0.0,0.0,49,0.00,,,0.00,,2013-03-15 12:52:00,
2013-03-15 07:02:00,45.0,27.0,26.46,NE,41,0.0,0.0,49,0.00,,,0.00,,2013-03-15 13:02:00,
2013-03-15 07:12:00,45.0,27.0,26.46,NE,41,0.0,0.0,49,0.00,,,0.00,,2013-03-15 13:12:00,
2013-03-15 07:22:00,46.0,28.0,26.46,NE,41,0.0,0.0,50,0.00,,,0.00,,2013-03-15 13:22:00,
2013-03-15 07:32:00,45.0,27.0,26.46,NE,44,0.0,0.0,50,0.00,,,0.00,,2013-03-15 13:32:00,
2013-03-15 07:42:00,45.0,27.0,26.46,NE,44,0.0,0.0,50,0.00,,,0.00,,2013-03-15 13:42:00,
2013-03-15 07:52:00,45.0,28.0,26.46,East,86,3.0,6.0,52,0.00,,,0.00,,2013-03-15 13:52:00,
2013-03-15 08:02:00,45.0,27.0,26.46,East,86,0.0,4.0,50,0.00,,,0.00,,2013-03-15 14:02:00,
2013-03-15 08:12:00,45.0,27.0,26.46,East,86,0.0,4.0,50,0.00,,,0.00,,2013-03-15 14:12:00,
2013-03-15 08:22:00,46.0,28.0,26.46,East,86,0.0,0.0,49,0.00,,,0.00,,2013-03-15 14:22:00,
2013-03-15 08:32:00,46.0,28.0,26.45,East,86,0.0,5.0,50,0.00,,,0.00,,2013-03-15 14:32:00,
2013-03-15 08:42:00,46.0,28.0,26.45,East,86,0.0,5.0,50,0.00,,,0.00,,2013-03-15 14:42:00,
2013-03-15 08:53:00,47.0,29.0,26.46,SE,136,0.0,7.0,49,0.00,,,0.00,,2013-03-15 14:53:00,
2013-03-15 09:02:00,47.0,28.0,26.45,SE,125,5.0,6.0,48,0.00,,,0.00,,2013-03-15 15:02:00,
2013-03-15 09:13:00,47.0,28.0,26.45,SE,125,5.0,6.0,48,0.00,,,0.00,,2013-03-15 15:13:00,
2013-03-15 09:22:00,49.0,28.0,26.45,East,94,6.0,8.0,44,0.00,,,0.00,,2013-03-15 15:22:00,
2013-03-15 09:33:00,50.0,29.0,26.44,ESE,114,3.0,5.0,45,0.00,,,0.00,,2013-03-15 15:33:00,
2013-03-15 09:42:00,50.0,29.0,26.44,ESE,106,4.0,6.0,44,0.00,,,0.00,,2013-03-15 15:42:00,
2013-03-15 09:53:00,50.0,29.0,26.44,ESE,106,4.0,6.0,44,0.00,,,0.00,,2013-03-15 15:53:00,
2013-03-15 10:02:00,53.0,30.0,26.44,ESE,106,1.0,5.0,41,0.00,,,0.00,,2013-03-15 16:02:00,
2013-03-15 10:12:00,57.0,31.0,26.44,East,98,4.0,7.0,37,0.00,,,0.00,,2013-03-15 16:12:00,
2013-03-15 10:22:00,57.0,31.0,26.44,East,98,4.0,7.0,37,0.00,,,0.00,,2013-03-15 16:22:00,
2013-03-15 10:32:00,58.0,31.0,26.46,NE,42,5.0,10.0,36,0.00,,,0.00,,2013-03-15 16:32:00,
2013-03-15 10:42:00,58.0,31.0,26.46,NE,42,5.0,10.0,36,0.00,,,0.00,,2013-03-15 16:42:00,
2013-03-15 10:52:00,53.0,31.0,26.46,NNE,26,6.0,16.0,43,0.00,,,0.00,,2013-03-15 16:52:00,
2013-03-15 11:02:00,51.0,31.0,26.48,NE,44,5.0,10.0,46,0.00,,,0.00,,2013-03-15 17:02:00,
2013-03-15 11:12:00,51.0,31.0,26.48,NE,44,5.0,10.0,46,0.00,,,0.00,,2013-03-15 17:12:00,
2013-03-15 11:22:00,51.0,31.0,26.48,ESE,102,7.0,13.0,47,0.00,,,0.00,,2013-03-15 17:22:00,
2013-03-15 11:32:00,52.0,32.0,26.49,NE,44,6.0,10.0,46,0.00,,,0.00,,2013-03-15 17:32:00,
2013-03-15 11:42:00,52.0,32.0,26.49,NE,44,6.0,10.0,46,0.00,,,0.00,,2013-03-15 17:42:00,
2013-03-15 11:53:00,53.0,32.0,26.48,ENE,65,6.0,12.0,44,0.00,,,0.00,,2013-03-15 17:53:00,
2013-03-15 12:02:00,55.0,32.0,26.48,NNE,15,10.0,18.0,41,0.00,,,0.00,,2013-03-15 18:02:00,
2013-03-15 12:12:00,55.0,32.0,26.48,NNE,15,10.0,18.0,41,0.00,,,0.00,,2013-03-15 18:12:00,
2013-03-15 12:22:00,56.0,31.0,26.46,North,9,14.0,19.0,38,0.00,,,0.00,,2013-03-15 18:22:00,
2013-03-15 12:32:00,59.0,32.0,26.46,NNE,15,9.0,15.0,36,0.00,,,0.00,,2013-03-15 18:32:00,
2013-03-15 12:42:00,59.0,32.0,26.46,NNE,15,9.0,15.0,36,0.00,,,0.00,,2013-03-15 18:42:00,
2013-03-15 12:52:00,61.0,31.0,26.45,NNE,24,12.0,19.0,32,0.00,,,0.00,,2013-03-15 18:52:00,
2013-03-15 13:02:00,61.0,32.0,26.45,NNE,24,9.0,18.0,33,0.00,,,0.00,,2013-03-15 19:02:00,
2013-03-15 13:12:00,61.0,32.0,26.45,NNE,24,9.0,18.0,33,0.00,,,0.00,,2013-03-15 19:12:00,
2013-03-15 13:22:00,61.0,32.0,26.45,NE,39,5.0,9.0,33,0.00,,,0.00,,2013-03-15 19:22:00,
2013-03-15 13:32:00,63.0,32.0,26.44,NNE,33,6.0,10.0,31,0.00,,,0.00,,2013-03-15 19:32:00,
2013-03-15 13:42:00,63.0,32.0,26.44,NNE,33,6.0,10.0,31,0.00,,,0.00,,2013-03-15 19:42:00,
2013-03-15 13:52:00,64.0,29.0,26.44,NNE,33,15.0,22.0,27,0.00,,,0.00,,2013-03-15 19:52:00,
2013-03-15 14:02:00,66.0,28.0,26.43,ENE,59,13.0,29.0,24,0.00,,,0.00,,2013-03-15 20:02:00,
2013-03-15 14:12:00,66.0,28.0,26.43,ENE,59,13.0,29.0,24,0.00,,,0.00,,2013-03-15 20:12:00,
2013-03-15 14:22:00,67.0,29.0,26.43,NNE,15,13.0,25.0,24,0.00,,,0.00,,2013-03-15 20:22:00,
2013-03-15 14:32:00,66.0,28.0,26.43,NNW,331,16.0,27.0,24,0.00,,,0.00,,2013-03-15 20:32:00,
2013-03-15 14:42:00,66.0,28.0,26.43,NNW,331,16.0,27.0,24,0.00,,,0.00,,2013-03-15 20:42:00,
2013-03-15 14:52:00,66.0,28.0,26.43,NW,325,17.0,29.0,24,0.00,,,0.00,,2013-03-15 20:52:00,
2013-03-15 15:02:00,66.0,28.0,26.42,North,10,17.0,34.0,24,0.00,,,0.00,,2013-03-15 21:02:00,
2013-03-15 15:12:00,66.0,28.0,26.42,North,10,17.0,34.0,24,0.00,,,0.00,,2013-03-15 21:12:00,
2013-03-15 15:22:00,65.0,29.0,26.42,North,360,15.0,27.0,26,0.00,,,0.00,,2013-03-15 21:22:00,
2013-03-15 15:33:00,66.0,29.0,26.43,NNW,344,14.0,29.0,25,0.00,,,0.00,,2013-03-15 21:33:00,
2013-03-15 15:43:00,66.0,29.0,26.43,NNW,344,14.0,29.0,25,0.00,,,0.00,,2013-03-15 21:43:00,
2013-03-15 15:53:00,65.0,29.0,26.43,NNW,330,15.0,24.0,26,0.00,,,0.00,,2013-03-15 21:53:00,
2013-03-15 16:03:00,65.0,29.0,26.44,NNE,15,14.0,24.0,26,0.00,,,0.00,,2013-03-15 22:03:00,
2013-03-15 16:13:00,65.0,29.0,26.44,NNE,15,14.0,24.0,26,0.00,,,0.00,,2013-03-15 22:13:00,
2013-03-15 16:22:00,64.0,28.0,26.44,NNW,329,16.0,29.0,26,0.00,,,0.00,,2013-03-15 22:22:00,
2013-03-15 16:32:00,64.0,28.0,26.44,NNW,342,14.0,27.0,26,0.00,,,0.00,,2013-03-15 22:32:00,
2013-03-15 16:42:00,64.0,28.0,26.44,NNW,342,14.0,27.0,26,0.00,,,0.00,,2013-03-15 22:42:00,
2013-03-15 16:52:00,64.0,29.0,26.44,North,360,16.0,27.0,27,0.00,,,0.00,,2013-03-15 22:52:00,
2013-03-15 17:02:00,64.0,30.0,26.45,North,355,19.0,27.0,28,0.00,,,0.00,,2013-03-15 23:02:00,
2013-03-15 17:12:00,64.0,30.0,26.45,North,355,19.0,27.0,28,0.00,,,0.00,,2013-03-15 23:12:00,
2013-03-15 17:22:00,63.0,29.0,26.45,NNW,338,13.0,26.0,28,0.00,,,0.00,,2013-03-15 23:22:00,
2013-03-15 17:32:00,63.0,30.0,26.46,NE,55,15.0,26.0,29,0.00,,,0.00,,2013-03-15 23:32:00,
2013-03-15 17:42:00,63.0,30.0,26.46,NE,55,15.0,26.0,29,0.00,,,0.00,,2013-03-15 23:42:00,
2013-03-15 17:53:00,61.0,29.0,26.46,NE,54,13.0,27.0,29,0.00,,,0.00,,2013-03-15 23:53:00,
2013-03-15 18:02:00,60.0,28.0,26.47,NW,315,15.0,24.0,30,0.00,,,0.00,,2013-03-16 00:02:00,
2013-03-15 18:12:00,60.0,28.0,26.47,NW,315,15.0,24.0,30,0.00,,,0.00,,2013-03-16 00:12:00,
2013-03-15 18:22:00,60.0,28.0,26.48,ENE,63,11.0,26.0,30,0.00,,,0.00,,2013-03-16 00:22:00,
2013-03-15 18:32:00,59.0,28.0,26.49,NNE,32,11.0,20.0,31,0.00,,,0.00,,2013-03-16 00:32:00,
2013-03-15 18:42:00,59.0,28.0,26.49,NNE,32,11.0,20.0,31,0.00,,,0.00,,2013-03-16 00:42:00,
2013-03-15 18:52:00,59.0,29.0,26.49,NE,45,10.0,19.0,32,0.00,,,0.00,,2013-03-16 00:52:00,
2013-03-15 19:02:00,58.0,30.0,26.50,North,360,13.0,24.0,34,0.00,,,0.00,,2013-03-16 01:02:00,
2013-03-15 19:12:00,58.0,30.0,26.50,North,360,13.0,24.0,34,0.00,,,0.00,,2013-03-16 01:12:00,
2013-03-15 19:21:00,57.0,30.0,26.51,NNW,333,9.0,16.0,35,0.00,,,0.00,,2013-03-16 01:21:00,
2013-03-15 19:32:00,55.0,30.0,26.54,North,9,17.0,26.0,38,0.00,,,0.00,,2013-03-16 01:32:00,
2013-03-15 19:42:00,55.0,30.0,26.54,North,9,17.0,26.0,38,0.00,,,0.00,,2013-03-16 01:42:00,
2013-03-15 19:52:00,53.0,31.0,26.55,NNE,19,13.0,24.0,42,0.00,,,0.00,,2013-03-16 01:52:00,
2013-03-15 20:02:00,52.0,30.0,26.55,ENE,76,8.0,19.0,43,0.00,,,0.00,,2013-03-16 02:02:00,
2013-03-15 20:12:00,52.0,30.0,26.55,ENE,76,8.0,19.0,43,0.00,,,0.00,,2013-03-16 02:12:00,
2013-03-15 20:23:00,51.0,30.0,26.56,NNE,21,8.0,13.0,45,0.00,,,0.00,,2013-03-16 02:23:00,
2013-03-15 20:32:00,50.0,30.0,26.55,ENE,61,11.0,19.0,46,0.00,,,0.00,,2013-03-16 02:32:00,
2013-03-15 20:42:00,50.0,30.0,26.55,ENE,61,11.0,19.0,46,0.00,,,0.00,,2013-03-16 02:42:00,
2013-03-15 20:52:00,50.0,31.0,26.55,NE,46,9.0,18.0,47,0.00,,,0.00,,2013-03-16 02:52:00,
2013-03-15 21:02:00,49.0,30.0,26.57,NE,34,9.0,22.0,47,0.00,,,0.00,,2013-03-16 03:02:00,
2013-03-15 21:12:00,49.0,30.0,26.57,NE,34,9.0,22.0,47,0.00,,,0.00,,2013-03-16 03:12:00,
2013-03-15 21:22:00,48.0,29.0,26.58,North,360,12.0,21.0,48,0.00,,,0.00,,2013-03-16 03:22:00,
2013-03-15 21:32:00,47.0,29.0,26.58,NNE,22,11.0,19.0,49,0.00,,,0.00,,2013-03-16 03:32:00,
2013-03-15 21:43:00,47.0,29.0,26.58,NNE,22,11.0,19.0,49,0.00,,,0.00,,2013-03-16 03:43:00,
2013-03-15 21:53:00,46.0,29.0,26.59,NNE,30,9.0,15.0,51,0.00,,,0.00,,2013-03-16 03:53:00,
2013-03-15 22:02:00,44.0,29.0,26.60,ENE,65,13.0,22.0,56,0.00,,,0.00,,2013-03-16 04:02:00,
2013-03-15 22:12:00,44.0,29.0,26.60,ENE,65,13.0,22.0,56,0.00,,,0.00,,2013-03-16 04:12:00,
2013-03-15 22:23:00,42.0,29.0,26.61,North,360,11.0,24.0,59,0.00,,,0.00,,2013-03-16 04:23:00,
2013-03-15 22:32:00,40.0,27.0,26.62,NNE,23,14.0,22.0,60,0.00,,,0.00,,2013-03-16 04:32:00,
2013-03-15 22:43:00,40.0,27.0,26.62,NNE,23,14.0,22.0,60,0.00,,,0.00,,2013-03-16 04:43:00,
2013-03-15 22:53:00,37.0,26.0,26.62,North,11,16.0,25.0,65,0.00,,,0.00,,2013-03-16 04:53:00,
2013-03-15 23:02:00,35.0,26.0,26.63,ENE,57,13.0,24.0,68,0.00,,,0.00,,2013-03-16 05:02:00,
2013-03-15 23:12:00,35.0,26.0,26.63,ENE,57,13.0,24.0,68,0.00,,,0.00,,2013-03-16 05:12:00,
2013-03-15 23:22:00,34.0,25.0,26.64,NE,52,10.0,20.0,69,0.00,,,0.00,,2013-03-16 05:22:00,
2013-03-15 23:32:00,34.0,26.0,26.64,NNE,17,10.0,16.0,71,0.00,,,0.00,,2013-03-16 05:32:00,
2013-03-15 23:42:00,34.0,26.0,26.64,NNE,17,10.0,16.0,71,0.00,,,0.00,,2013-03-16 05:42:00,
2013-03-15 23:53:00,33.0,25.0,26.65,ENE,60,9.0,15.0,72,0.00,,,0.00,,2013-03-16 05:53:00,